Location: Unspecified
(0.0000°N, 0.0000°E)
Time: 05:47:30
(UTC+00:00)

STARLINK-32023 - Visible Passes

Search period start: 17 September 2024 00:00
Search period end: 27 September 2024 00:00
Orbit: 451 x 453 km, 53.2° (Epoch: 17 September)

Date Brightness Start Highest point End Pass type
(mag) Time Alt. Az. Time Alt. Az. Time Alt. Az.
19 Sep 5.6 19:19:58 10° S 19:20:40 14° S 19:20:40 14° S visible
20 Sep 4.6 18:43:25 10° S 18:46:08 20° SE 18:46:23 20° ESE visible
21 Sep 5.6 19:43:23 10° WSW 19:45:56 21° WNW 19:45:56 21° WNW visible
22 Sep 4.8 19:05:45 10° WSW 19:09:01 35° NW 19:11:47 13° N visible
23 Sep 3.8 18:28:19 10° SW 18:31:49 60° WNW 18:35:19 10° NNE visible
26 Sep 4.9 04:55:23 10° N 04:58:36 33° NE 05:01:50 10° ESE visible
26 Sep 6.6 18:16:21 10° WNW 18:17:08 11° NW 18:17:56 10° NW visible
